CAPE
1 1 0 1 1 1 0 0 0 0 0 0 0 0 0 0 0 0 0 0 0 0 0 0 0 0 0 0 0 0 0 0 0 0 0 0 0 0 0 0 123 256 432 202 89 109 57
1 1 1 1 1 0 1 0 0 0 0 0 0 0 0 0 0 0 0 0 0 0 0 0 0 0 0 0 0 0 0 0 0 0 0 0 0 0 0 26 27 182 3 132 138 232 109
1 1 1 2 1 1 1 0 0 0 0 0 0 0 0 0 0 0 0 0 0 0 0 0 0 0 0 0 0 0 0 0 0 0 0 0 0 0 0 8 100 3 4 289 571 319 154
1 1 2 1 1 2 1 0 0 0 0 0 0 0 0 0 0 0 0 0 0 0 0 0 0 0 0 0 0 0 0 0 0 0 0 0 0 0 0 61 148 219 256 175 140 4 249
2 1 0 0 1 0 1 0 0 0 0 0 0 0 0 0 0 0 0 0 0 0 0 0 0 0 0 0 0 0 0 0 0 0 0 0 0 0 0 0 3 3 94 267 98 9 10
0 0 2 1 1 1 1 0 0 0 0 0 0 0 0 0 0 0 0 0 0 0 0 0 0 0 0 0 0 0 0 0 0 0 0 0 0 0 0 0 0 41 34 26 2 69 203
0 0 0 0 0 0 0 0 0 0 0 0 0 0 0 0 0 0 0 0 0 0 0 0 0 0 0 0 0 0 0 0 0 0 0 0 0 0 0 0 2 55 38 66 18 0 373
1 0 0 0 0 0 0 0 0 0 0 0 0 0 0 0 0 0 0 0 0 0 0 0 0 0 0 0 0 0 0 0 0 0 0 0 0 0 0 0 0 57 65 267 188 219 284
1 0 0 0 0 0 0 0 0 0 0 0 0 0 0 0 0 0 0 0 0 0 0 0 0 0 0 0 0 0 0 0 0 0 0 0 0 0 0 0 0 19 44 65 28 49 148
0 0 0 0 0 0 0 0 0 0 0 0 0 0 0 0 0 0 0 0 0 0 0 0 0 0 0 0 0 0 0 0 0 0 0 0 0 0 0 0 0 16 2 83 83 95 39
1 0 0 0 0 0 0 0 0 0 0 0 0 0 0 0 0 0 0 0 0 0 0 0 0 0 0 0 0 0 0 0 0 0 0 0 0 0 0 0 0 0 6 12 24 0 2
0 0 0 0 0 0 0 0 0 0 0 0 0 0 0 0 0 0 0 0 0 0 0 0 0 0 0 0 0 0 0 0 0 0 0 0 0 0 0 0 0 0 15 16 18 6 5
0 0 0 0 0 0 0 0 0 0 0 0 0 0 0 0 0 0 0 0 0 0 0 0 0 0 0 0 0 0 0 0 0 0 0 0 0 0 0 0 0 0 0 2 19 61 39
0 0 0 0 0 0 0 0 0 0 0 0 0 0 0 0 0 0 0 0 0 0 2 0 0 0 0 0 0 0 0 0 0 0 0 0 0 0 0 0 0 0 0 0 0 0 0
0 0 0 0 0 0 0 0 0 0 0 0 0 0 0 0 0 0 0 0 0 0 0 0 0 0 0 0 0 0 0 0 0 0 0 0 0 0 0 0 0 0 0 0 0 0 0
0 0 0 0 0 0 0 0 0 0 0 0 0 0 0 0 0 0 0 0 0 0 0 0 0 0 1 1 0 0 0 0 0 0 0 0 0 0 0 0 0 0 0 0 53 40 5
0 0 0 0 0 0 0 0 0 0 0 0 0 0 0 0 0 0 0 0 0 0 0 0 0 0 0 7 3 0 3 0 0 0 0 0 0 6 0 4 5 0 0 18 92 46 13
0 0 0 0 0 0 0 0 0 0 0 0 0 0 0 0 0 0 0 0 0 0 0 0 0 0 0 0 3 1 17 0 0 0 0 0 0 0 9 3 0 9 0 0 15 13 0
0 0 0 1 0 0 0 0 0 0 0 0 0 0 0 0 0 0 0 0 0 0 0 0 0 0 0 0 0 0 2 0 0 0 0 0 0 0 13 0 0 0 1 15 5 10 14
0 0 1 1 0 0 0 0 0 0 0 0 0 0 0 0 0 0 0 0 0 0 0 0 0 0 0 0 0 0 1 0 0 0 0 0 0 0 0 2 12 1 0 4 0 0 0
2 1 1 1 0 0 0 0 0 0 0 0 0 0 0 0 0 0 0 0 0 0 0 0 0 0 0 0 0 0 0 0 0 0 0 0 0 0 0 27 6 0 0 1 0 21 9
1 1 1 0 0 0 0 0 0 0 0 0 0 0 0 0 0 0 0 0 0 0 0 3 0 0 0 0 0 0 0 0 0 0 0 0 0 0 0 2 4 14 22 32 3 0 28
1 1 1 0 1 0 0 0 0 0 0 0 0 0 0 0 0 0 0 0 0 0 0 0 0 0 0 0 0 0 0 0 0 0 4 0 0 0 0 4 50 40 22 9 6 5 1
1 1 2 0 2 0 0 0 0 0 0 0 0 0 0 0 0 0 0 0 0 0 0 0 0 0 0 0 0 0 0 0 0 0 0 0 0 0 0 0 0 2 27 67 101 32 6
1 1 0 1 3 0 0 0 0 0 0 0 0 0 0 0 0 4 20 1 0 0 0 0 0 0 0 0 0 0 0 0 0 0 0 0 0 0 0 0 3 65 4 41 57 19 0
2 2 0 2 3 1 0 0 0 0 0 0 0 0 0 0 0 0 0 0 0 0 0 1 2 0 0 0 1 0 0 0 0 0 0 0 2 0 0 0 0 26 13 33 76 38 59
2 3 4 3 2 2 0 0 0 0 0 0 0 0 1 0 0 0 0 0 0 2 0 11 8 0 7 0 0 0 0 0 0 0 0 1 1 0 0 0 67 51 84 5 0 52 211
2 2 5 2 1 1 0 0 0 0 0 1 0 4 0 0 0 0 0 0 0 3 4 14 18 13 0 0 0 0 0 3 0 0 0 0 22 0 0 0 48 70 91 244 388 304 264
1 1 2 3 1 1 0 0 0 0 0 0 0 3 6 1 0 0 0 0 0 0 1 2 60 15 0 0 0 1 0 22 29 0 30 1 20 61 0 48 80 72 71 151 86 493 289
CIN
-0 -0 -0 -0 -0 -0 -0 -0 -0 -0 -0 -0 -0 -0 -0 -0 -0 -0 -0 -0 -0 -0 -0 -0 -0 -0 -0 -0 -0 -0 -0 -0 -0 -0 -0 -0 -0 -0 -0 -3 -72 -28 -24 -28 -53 -55 -81
-0 -0 -0 -0 -0 -0 -0 -0 -0 -0 -0 -0 -0 -0 -0 -0 -0 -0 -0 -0 -0 -0 -0 -0 -0 -0 -0 -0 -0 -0 -0 -0 -0 -0 -0 -0 -0 -0 -0 -17 -53 -87 -49 -24 -5 -27 -75
-1 -0 -0 -0 -0 -0 -0 -0 -0 -0 -0 -0 -0 -0 -0 -0 -0 -0 -0 -0 -0 -0 -0 -0 -0 -0 -0 -0 -0 -0 -0 -0 -0 -0 -0 -0 -0 -0 -0 -2 -135 -127 -22 -44 -1 -20 -32
-0 -0 -0 -0 -0 -0 -0 -0 -0 -0 -0 -0 -0 -0 -0 -0 -0 -0 -0 -0 -0 -0 -0 -0 -0 -0 -0 -0 -0 -0 -0 -0 -0 -0 -0 -0 -0 -0 -0 -17 -44 -40 -44 -20 -60 -57 -18
-0 -0 -0 -0 -0 -0 -0 -0 -0 -0 -0 -0 -0 -0 -0 -0 -0 -0 -0 -0 -0 -0 -0 -0 -0 -0 -0 -0 -0 -0 -0 -0 -0 -0 -0 -0 -0 -0 -0 -0 -7 -31 -13 -19 -64 -138 -24
-0 -0 -0 -0 -0 -0 -0 -0 -0 -0 -0 -0 -0 -0 -0 -0 -0 -0 -0 -0 -0 -0 -0 -0 -0 -0 -0 -0 -0 -0 -0 -0 -0 -0 -0 -0 -0 -0 -0 -0 -5 -9 -8 -42 -109 -111 -103
-0 -0 -0 -0 -0 -0 -0 -0 -0 -0 -0 -0 -0 -0 -0 -0 -0 -0 -0 -0 -0 -0 -0 -0 -0 -0 -0 -0 -0 -0 -0 -0 -0 -0 -0 -0 -0 -0 -0 -0 -5 -2 -15 -17 -30 -0 -69
-0 -0 -0 -0 -0 -0 -0 -0 -0 -0 -0 -0 -0 -0 -0 -0 -0 -0 -0 -0 -0 -0 -0 -0 -0 -0 -0 -0 -0 -0 -0 -0 -0 -0 -0 -0 -0 -0 -0 -0 -0 -3 -8 -18 -58 -51 -56
-0 -0 -0 -0 -0 -0 -0 -0 -0 -0 -0 -0 -0 -0 -0 -0 -0 -0 -0 -0 -0 -0 -0 -0 -0 -0 -0 -0 -0 -0 -0 -0 -0 -0 -0 -0 -0 -0 -0 -0 -0 -6 -9 -19 -22 -32 -28
-0 -0 -0 -0 -0 -0 -0 -0 -0 -0 -0 -0 -0 -0 -0 -0 -0 -0 -0 -0 -0 -0 -0 -0 -0 -0 -0 -0 -0 -0 -0 -0 -0 -0 -0 -0 -0 -0 -0 -0 -0 -6 -2 -10 -15 -15 -28
-0 -0 -0 -0 -0 -0 -0 -0 -0 -0 -0 -0 -0 -0 -0 -0 -0 -0 -0 -0 -0 -0 -0 -0 -0 -0 -0 -0 -0 -0 -0 -0 -0 -0 -0 -0 -0 -0 -0 -0 -0 -0 -6 -10 -9 -0 -21
-0 -0 -0 -0 -0 -0 -0 -0 -0 -0 -0 -0 -0 -0 -0 -0 -0 -0 -0 -0 -0 -0 -0 -0 -0 -0 -0 -0 -0 -0 -0 -0 -0 -0 -0 -0 -0 -0 -0 -0 -0 -0 -7 -17 -14 -39 -40
-0 -0 -0 -0 -0 -0 -0 -0 -0 -0 -0 -0 -0 -0 -0 -0 -0 -0 -0 -0 -0 -0 -0 -0 -0 -0 -0 -0 -0 -0 -0 -0 -0 -0 -0 -0 -0 -0 -0 -0 -0 -0 -0 -2 -13 -17 -24
-0 -0 -0 -0 -0 -0 -0 -0 -0 -0 -0 -0 -0 -0 -0 -0 -0 -0 -0 -0 -0 -0 -12 -0 -0 -0 -0 -0 -0 -0 -0 -0 -0 -0 -0 -0 -0 -0 -0 -0 -0 -0 -0 -0 -0 -0 -0
-0 -0 -0 -0 -0 -0 -0 -0 -0 -0 -0 -0 -0 -0 -0 -0 -0 -0 -0 -0 -0 -0 -0 -0 -0 -0 -0 -0 -0 -0 -0 -0 -0 -0 -0 -0 -0 -0 -0 -0 -0 -0 -0 -0 -0 -0 -4
-0 -0 -0 -0 -0 -0 -0 -0 -0 -0 -0 -0 -0 -0 -0 -0 -0 -0 -0 -0 -0 -0 -0 -0 -0 -0 -5 -2 -0 -0 -0 -0 -0 -0 -0 -0 -0 -2 -0 -0 -0 -0 -0 -0 -34 -9 -9
-0 -0 -0 -0 -0 -0 -0 -0 -0 -0 -0 -0 -0 -0 -0 -0 -0 -0 -0 -0 -0 -0 -0 -0 -0 -0 -0 -1 -6 -4 -2 -0 -0 -0 -0 -0 -0 -1 -0 -25 -23 -0 -0 -35 -63 -73 -30
-0 -0 -0 -0 -0 -0 -0 -0 -0 -0 -0 -0 -0 -0 -0 -0 -0 -0 -0 -0 -0 -0 -0 -0 -0 -0 -0 -0 -0 -0 -5 -0 -0 -0 -0 -0 -0 -0 -52 -61 -0 -53 -0 -0 -37 -41 -3
-0 -0 -0 -0 -0 -0 -0 -0 -0 -0 -0 -0 -0 -0 -0 -0 -0 -0 -0 -0 -0 -0 -0 -0 -0 -0 -0 -0 -0 -0 -2 -0 -0 -0 -0 -0 -0 -0 -31 -0 -0 -17 -10 -122 -49 -86 -53
-0 -0 -0 -0 -0 -0 -0 -0 -0 -0 -0 -0 -0 -0 -0 -0 -0 -0 -0 -0 -0 -0 -0 -0 -0 -0 -0 -0 -0 -0 -4 -0 -0 -0 -0 -0 -0 -0 -0 -3 -55 -54 -0 -41 -0 -0 -0
-0 -0 -0 -0 -0 -0 -0 -0 -0 -0 -0 -0 -0 -0 -0 -0 -0 -0 -0 -0 -0 -0 -0 -0 -0 -0 -0 -0 -0 -0 -0 -0 -0 -0 -0 -0 -0 -0 -0 -7 -42 -0 -0 -15 -0 -52 -39
-0 -0 -0 -0 -0 -0 -0 -0 -0 -0 -0 -0 -0 -0 -0 -0 -0 -0 -0 -0 -0 -0 -0 -1 -0 -0 -0 -0 -0 -0 -0 -0 -0 -0 -0 -0 -0 -0 -0 -3 -7 -25 -57 -26 -33 -0 -82
-0 -0 -0 -0 -0 -0 -0 -0 -0 -0 -0 -0 -0 -0 -0 -0 -0 -0 -0 -0 -0 -0 -0 -1 -0 -0 -0 -0 -0 -0 -0 -0 -0 -0 -11 -2 -0 -0 -0 -11 -4 -21 -35 -47 -64 -20 -24
-0 -0 -0 -0 -0 -0 -0 -0 -0 -0 -0 -0 -0 -0 -0 -0 -0 -0 -0 -0 -0 -0 -0 -0 -24 -0 -0 -0 -0 -0 -0 -0 -0 -0 -0 -0 -0 -0 -0 -0 -0 -35 -78 -56 -22 -56 -81
-0 -0 -0 -0 -0 -0 -0 -0 -0 -0 -0 -0 -0 -0 -0 -0 -0 -123 -145 -128 -0 -0 -0 -0 -0 -0 -0 -0 -0 -0 -0 -0 -0 -0 -0 -0 -0 -0 -0 -0 -7 -29 -30 -45 -49 -117 -7
-13 -0 -0 -0 -2 -0 -0 -0 -0 -0 -0 -0 -0 -0 -0 -0 -0 -0 -0 -0 -17 -0 -0 -77 -2 -0 -0 -0 -5 -0 -0 -0 -0 -0 -0 -1 -5 -0 -0 -0 -0 -13 -16 -4 -39 -37 -113
-2 -10 -0 -2 -0 -0 -0 -0 -0 -0 -0 -0 -0 -1 -0 -0 -0 -0 -0 -0 -0 -124 -0 -82 -65 -19 -28 -0 -0 -0 -0 -2 -0 -0 -0 -3 -12 -0 -0 -0 -22 -28 -48 -12 -0 -30 -76
-0 -0 -10 -9 -0 -0 -0 -0 -0 -0 -0 -0 -0 -3 -1 -0 -0 -0 -0 -0 -0 -162 -163 -140 -136 -60 -0 -0 -0 -0 -0 -37 -0 -0 -0 -0 -7 -0 -0 -0 -14 -31 -40 -30 -13 -29 -72
-0 -0 -0 -15 -0 -0 -0 -0 -0 -0 -0 -0 -0 -2 -2 -0 -0 -0 -0 -0 -0 -0 -36 -260 -94 -59 -0 -0 -3 -5 -3 -33 -27 -7 -18 -0 -16 -7 -0 -21 -45 -35 -38 -48 -49 -14 -39
Wind_Speed
21 19 17 16 14 15 15 14 14 13 12 12 12 13 12 11 10 9 8 5 4 3 4 7 10 12 13 14 10 14 12 7 6 6 10 19 22 19 18 7 15 10 17 14 19 19 21
21 19 18 17 17 17 16 14 14 13 12 13 14 14 14 13 11 10 7 5 3 3 8 12 14 15 15 16 16 15 11 6 7 4 10 22 21 21 25 15 12 12 17 10 17 17 17
22 21 20 20 20 20 19 18 17 15 14 14 15 14 15 15 14 12 10 5 4 5 11 13 15 15 14 12 16 13 10 7 6 8 25 25 26 26 24 24 10 13 16 16 15 15 15
24 23 22 22 22 22 21 21 20 18 18 17 16 17 17 17 16 14 11 6 4 8 13 14 15 15 13 16 18 11 9 11 14 22 26 24 22 21 19 14 12 13 13 13 14 16 13
26 25 24 24 24 24 24 23 24 23 23 20 19 19 19 19 17 14 11 7 6 11 13 15 16 16 15 15 13 8 8 8 10 22 23 23 20 19 23 19 17 15 14 16 14 14 11
26 26 26 26 26 26 26 26 27 27 26 24 22 19 17 15 14 14 12 5 13 13 13 12 11 17 12 15 13 11 16 18 10 15 20 21 18 18 23 22 17 17 15 17 18 12 11
28 28 28 28 28 28 28 29 29 29 28 26 23 21 19 15 13 12 20 18 18 16 13 11 13 16 15 17 14 13 11 15 19 14 19 17 15 18 21 24 14 16 16 13 13 11 6
29 29 30 30 30 30 31 31 31 30 29 28 27 25 23 19 13 5 14 17 16 14 17 5 6 12 17 11 12 13 10 17 11 18 15 21 19 29 30 30 22 12 12 10 14 21 2
31 32 32 32 33 33 33 32 32 31 30 30 29 28 26 22 18 12 11 9 6 11 15 10 9 9 13 12 8 11 8 17 20 20 25 22 20 13 29 30 25 17 22 10 14 10 5
33 33 34 34 35 35 35 34 34 33 32 32 31 29 28 26 14 14 11 6 8 18 17 11 12 12 14 12 13 12 12 21 21 23 23 7 28 24 7 29 23 13 5 11 13 14 22
34 35 35 36 37 37 37 37 36 35 35 33 32 31 29 25 8 11 9 11 12 13 20 14 13 13 10 7 12 8 12 19 22 22 16 13 15 26 12 10 20 13 12 16 16 21 24
35 36 37 38 38 38 38 38 38 37 37 36 34 33 32 17 9 9 7 6 6 15 15 12 12 13 13 16 12 13 11 17 18 20 11 20 21 17 16 21 25 17 16 18 17 21 23
37 38 39 40 40 40 40 40 40 40 39 38 37 35 28 16 6 13 22 9 15 13 13 11 10 11 13 14 10 13 15 14 10 12 9 12 10 13 9 6 10 8 16 22 20 22 25
37 38 40 40 41 41 42 42 42 42 42 42 41 37 17 5 2 7 15 12 11 9 5 14 16 14 22 10 9 11 10 10 13 12 20 12 6 5 7 5 9 4 1 13 23 25 30
37 38 39 40 40 41 42 42 43 44 44 44 42 26 18 13 3 5 8 4 9 11 24 15 11 13 24 8 14 11 11 17 7 12 19 20 15 11 10 10 8 8 6 12 13 18 26
36 37 38 39 39 40 40 42 42 44 45 44 33 27 19 5 2 2 6 6 8 1 16 17 16 20 18 17 14 11 10 9 14 14 16 16 18 12 10 10 9 3 26 19 20 21 26
36 36 36 37 38 39 39 40 41 42 43 39 26 23 21 2 3 5 9 10 9 2 14 15 6 27 24 15 18 14 19 9 9 14 12 15 16 16 11 17 17 18 16 16 15 20 23
34 35 35 35 36 37 37 38 39 40 42 31 24 19 13 4 8 14 15 16 18 27 13 15 20 26 24 22 16 14 17 12 12 15 15 19 18 18 12 17 20 21 17 13 11 14 21
33 33 32 33 34 35 35 36 36 36 35 30 26 19 21 3 12 16 24 23 23 36 22 12 15 22 27 21 19 20 12 13 14 16 17 20 13 17 18 23 25 17 21 18 18 15 24
30 29 29 30 32 32 33 34 34 34 33 28 22 19 15 19 18 23 28 28 30 32 32 20 15 22 23 21 25 21 19 9 10 12 14 18 12 12 18 13 14 17 16 14 13 18 22
29 28 26 28 29 29 31 32 32 33 33 24 17 16 22 19 21 30 31 35 37 38 31 21 28 22 19 19 26 25 17 7 9 8 15 15 16 13 16 13 11 13 14 11 10 11 15
29 27 26 27 28 27 28 30 31 32 34 19 20 22 24 32 28 30 30 31 28 36 31 32 22 28 24 22 24 23 17 16 15 8 13 11 13 18 20 25 5 8 15 17 14 19 18
28 26 26 26 25 26 27 28 29 30 29 21 23 24 24 26 28 29 26 29 31 35 34 30 32 25 28 18 18 22 14 16 16 17 9 14 16 20 20 21 18 17 12 12 10 18 16
28 26 26 25 23 23 25 26 27 26 25 24 23 25 23 28 29 30 34 34 34 31 29 32 30 21 20 8 10 13 16 18 21 24 17 17 20 19 23 26 22 17 14 18 13 13 15
28 26 25 24 21 22 24 25 25 25 25 24 23 23 24 29 30 34 34 34 33 32 30 28 21 19 22 10 16 18 21 21 22 22 20 16 19 17 18 21 18 14 18 19 19 13 10
27 26 24 23 19 22 22 24 24 25 25 25 26 24 24 28 27 27 33 33 34 29 28 25 21 18 21 17 16 18 19 19 16 19 19 22 15 15 19 22 23 12 16 14 10 13 3
27 26 23 20 19 21 22 23 24 24 24 24 24 25 23 29 31 30 30 30 28 28 28 25 25 22 21 18 20 17 19 17 15 19 16 17 16 18 20 17 15 14 15 18 19 17 3
27 24 21 19 19 20 21 22 23 23 23 23 25 23 23 28 36 35 32 33 32 27 27 25 23 20 22 21 18 20 19 17 19 20 19 19 14 16 19 19 15 11 13 13 11 7 6
25 23 20 19 20 20 19 20 21 21 21 21 20 23 24 27 31 38 40 41 38 32 30 24 23 22 20 18 21 18 20 16 20 22 24 17 15 14 17 13 10 12 12 9 13 7 6
Wind_Direction
347 340 334 328 322 319 315 309 305 298 290 286 283 277 270 264 256 246 235 221 222 191 158 140 130 109 41 27 44 4 351 344 340 329 122 252 229 213 215 334 344 292 31 3 82 70 83
343 336 332 329 326 324 318 311 307 299 292 289 286 283 277 270 261 250 238 220 204 133 108 94 82 61 38 16 1 10 25 12 320 345 285 190 246 222 257 324 7 136 29 128 91 58 84
345 339 334 331 329 327 324 319 313 304 298 293 288 284 283 277 269 259 249 227 206 121 92 81 67 51 41 53 350 22 43 16 76 115 238 244 236 277 289 285 58 73 38 72 68 57 53
349 343 335 333 332 330 325 321 317 310 306 301 293 290 288 283 276 263 252 228 187 98 71 66 61 44 38 10 319 24 59 113 149 205 252 265 288 287 291 349 337 345 8 55 353 332 29
349 344 339 335 333 332 329 323 322 319 315 307 300 297 293 286 278 263 250 225 131 81 65 55 45 36 25 16 16 301 51 6 324 260 266 273 294 283 268 296 302 320 323 323 326 358 158
345 342 337 336 335 331 329 326 326 323 318 311 305 296 289 278 266 260 257 147 66 56 54 58 52 17 35 22 16 351 299 289 324 289 270 276 289 278 275 279 298 308 309 327 317 5 115
345 340 338 334 331 329 327 328 327 325 321 314 303 297 291 276 257 250 353 38 34 38 45 44 33 26 33 357 18 321 339 282 269 296 270 274 291 277 271 270 306 318 319 316 331 23 66
338 335 333 333 331 328 327 325 324 319 316 312 307 301 296 282 254 167 51 43 42 35 15 106 133 26 8 74 30 11 360 274 316 275 286 272 282 231 225 234 284 315 328 333 335 311 345
338 336 334 332 332 331 325 322 321 317 313 311 308 304 299 287 263 56 63 70 89 42 19 37 98 112 41 42 82 36 43 260 248 258 223 252 227 154 231 248 277 306 290 323 322 321 351
338 337 336 333 331 329 327 323 318 316 312 309 307 304 302 295 39 40 60 118 67 27 25 50 64 48 49 88 346 55 102 207 257 245 221 278 242 248 160 252 279 314 18 342 330 323 302
337 334 333 331 329 326 325 323 318 314 311 307 304 302 297 323 53 39 68 245 49 43 15 80 72 63 81 118 45 49 72 241 217 251 305 299 307 259 316 306 297 315 338 320 318 305 304
331 330 329 328 326 324 322 321 318 314 310 306 301 299 301 360 21 150 198 195 73 35 31 63 54 54 98 157 25 19 63 183 202 241 2 232 280 312 318 295 282 298 327 321 313 303 293
327 326 326 326 325 324 323 322 320 315 311 305 299 291 319 342 35 343 277 54 27 32 53 62 72 78 121 119 41 64 107 123 101 338 28 153 156 4 13 28 156 171 321 302 300 295 285
329 329 328 327 327 326 325 324 322 319 314 310 301 289 335 341 350 324 342 21 19 57 79 38 1 310 257 109 67 96 109 118 154 145 231 198 4 49 87 91 354 103 45 307 295 298 282
329 329 329 329 328 328 327 326 324 321 317 314 306 328 329 329 167 342 358 8 35 44 343 16 39 330 259 342 320 360 5 203 199 355 315 313 360 87 71 57 350 354 353 320 322 306 290
327 328 329 330 328 328 328 328 327 323 319 315 322 322 316 323 106 324 322 303 332 88 242 348 327 291 299 289 319 331 352 39 348 345 330 329 328 18 43 50 33 77 271 327 317 306 285
325 326 328 329 329 328 327 327 326 324 319 316 331 323 320 170 141 284 281 295 311 322 222 340 4 266 279 312 289 306 321 5 11 22 24 332 354 2 22 342 336 321 324 332 329 306 291
322 324 326 328 329 329 330 327 327 329 326 336 332 321 360 111 290 289 282 290 295 236 313 326 304 275 273 288 296 317 313 316 335 320 332 330 334 336 12 335 323 299 346 358 346 322 293
320 323 324 326 329 331 331 330 330 331 338 336 327 314 308 254 285 287 286 282 285 261 280 317 312 286 269 289 292 294 329 351 334 327 331 313 331 340 339 315 310 318 310 324 319 311 284
322 322 324 326 328 330 330 331 329 328 332 336 330 318 308 290 286 289 283 276 275 270 264 290 299 285 289 286 278 290 298 344 8 355 349 332 322 326 336 1 357 334 310 325 346 305 285
323 323 324 326 327 329 330 330 328 325 323 334 329 310 316 305 291 288 283 268 269 273 279 278 272 285 290 293 275 276 296 327 355 14 349 350 316 320 325 352 8 351 333 327 321 334 323
323 322 322 324 325 327 329 329 327 326 317 331 317 315 302 287 290 286 280 275 272 263 274 267 274 272 279 282 279 283 303 310 317 352 341 355 334 311 315 320 6 3 335 330 318 307 312
324 324 323 323 325 326 327 326 327 326 323 320 313 310 303 290 288 284 279 278 273 266 267 273 271 275 270 278 282 283 311 311 321 332 339 334 327 314 306 316 334 330 337 344 356 295 311
327 327 324 323 323 324 325 324 323 324 326 316 311 306 301 288 284 278 272 276 275 278 280 259 269 271 295 304 301 296 309 305 302 306 329 326 309 309 302 298 311 334 337 322 320 322 318
327 325 324 324 326 324 322 321 321 320 318 315 309 305 298 287 284 275 269 276 278 278 277 271 274 274 290 285 281 286 289 298 300 301 313 314 309 307 310 307 317 333 334 325 314 318 331
328 327 326 325 324 323 321 318 318 316 314 312 300 304 296 288 283 284 276 273 270 276 274 271 277 270 281 287 279 279 283 294 308 313 306 292 311 302 305 300 304 334 319 324 347 334 22
331 330 328 326 324 322 321 317 314 314 311 313 303 301 300 285 283 283 273 273 274 274 270 277 271 276 270 281 276 279 283 291 305 299 316 303 310 303 301 310 316 335 319 309 306 312 85
335 334 333 332 328 324 320 316 314 317 315 318 302 300 303 290 279 276 276 273 268 270 267 277 278 273 273 264 279 282 284 297 299 297 300 303 306 307 299 297 313 349 349 336 345 20 71
337 334 334 334 331 329 325 317 315 316 320 319 313 306 304 292 282 277 261 253 259 263 267 274 272 265 274 278 273 283 281 291 300 294 295 299 306 309 311 324 350 337 333 335 338 359 350